Wind_Speed
51 52 54 55 57 58 58 59 60 60 61 62 62 61 60 59 60 61 61 62 63 63 64 64 63 63 63 62 62 63 62 62 60 59 60 62 63 63 63 64 65 66 67
50 51 53 54 55 56 57 58 58 59 59 59 60 60 60 60 60 61 61 62 63 63 63 63 62 62 61 61 62 62 62 61 60 59 59 61 62 63 63 64 65 66 66
51 52 53 54 55 55 56 57 57 58 58 59 59 60 60 60 61 61 61 62 62 62 61 61 60 60 60 61 61 61 61 60 60 60 61 61 62 63 64 64 64 64 64
53 54 54 55 56 56 56 57 57 58 59 59 60 60 61 62 62 62 63 62 62 61 61 60 60 60 60 60 60 60 60 60 60 61 61 61 61 62 63 63 63 62 62
55 55 56 56 56 57 57 57 57 58 59 59 60 60 61 61 61 62 62 62 61 60 60 59 59 59 59 59 59 59 59 59 60 61 61 61 60 62 62 62 62 60 58
57 57 57 57 57 58 58 57 58 59 59 59 59 59 59 60 61 61 62 61 60 60 59 59 59 59 60 59 59 58 58 59 60 61 61 60 60 61 61 61 60 59 56
59 59 59 59 60 59 59 59 59 59 59 59 59 59 60 60 61 61 62 60 59 59 59 59 59 59 59 59 58 58 59 59 59 60 59 59 59 59 59 58 58 57 55
62 62 61 61 61 61 60 60 60 59 59 59 60 60 60 60 61 61 61 61 60 60 60 59 59 58 58 57 57 57 58 58 58 59 58 57 58 57 57 56 56 55 52
64 63 62 62 62 61 60 60 60 60 59 59 59 60 59 60 61 61 61 61 61 60 59 59 58 57 56 56 56 56 56 56 57 57 56 56 55 55 55 54 54 53 50
64 63 62 62 62 61 61 61 60 60 59 59 59 59 59 59 59 60 61 60 60 59 58 58 57 56 55 56 56 55 55 54 54 53 53 53 53 52 52 53 53 52 50
64 63 62 62 62 61 61 60 60 59 59 59 59 59 58 58 58 59 59 59 59 58 57 56 55 55 55 55 55 54 53 52 51 50 50 50 50 49 49 50 51 51 50
63 62 61 61 61 61 60 59 59 59 58 58 58 57 57 57 57 57 58 58 58 56 55 55 54 53 52 53 52 52 51 49 48 48 48 47 47 47 47 48 49 49 49
61 61 60 60 59 59 59 58 57 57 57 57 57 56 55 55 56 56 56 56 56 55 54 52 51 50 50 50 49 48 47 46 46 46 45 45 45 45 46 47 47 47 47
60 59 58 57 57 56 56 56 56 55 55 56 56 55 54 54 54 54 54 53 52 51 50 49 48 47 46 45 44 44 44 44 43 44 43 43 43 44 45 46 45 45 43
58 57 56 55 54 53 53 53 53 53 54 55 54 53 52 51 51 51 50 48 47 46 45 44 43 42 41 40 40 41 42 41 41 42 41 41 42 43 44 44 43 41 38
55 54 53 52 52 51 50 50 50 51 52 52 51 50 49 48 48 47 45 44 43 42 41 40 39 38 38 38 38 38 38 39 40 40 40 40 41 42 42 41 40 38 36
53 51 51 50 50 49 49 49 48 48 49 49 48 47 46 45 44 43 43 41 40 38 37 36 36 35 35 35 35 36 36 37 38 38 38 39 40 40 39 38 37 36 35
50 50 49 49 48 48 48 48 48 48 46 45 45 44 42 42 42 41 40 38 36 34 34 34 33 33 32 32 33 34 34 35 36 37 37 39 39 38 37 36 36 35 34
48 47 46 46 46 46 46 46 46 46 45 43 42 41 40 40 39 38 36 33 32 31 31 30 29 29 30 31 32 32 33 34 34 35 37 38 37 36 35 35 34 33 32
45 44 44 44 44 44 45 45 44 43 43 42 40 39 38 37 36 34 32 30 29 27 26 26 26 27 28 29 30 31 32 32 34 35 35 35 34 34 33 33 32 31 31
43 42 43 43 43 43 43 43 43 42 41 40 38 36 35 34 32 31 28 26 25 25 25 25 26 27 28 29 29 30 30 31 32 33 33 32 31 31 32 31 30 30 29
42 41 41 41 41 41 42 42 41 40 40 38 35 33 32 31 30 28 25 24 24 24 25 25 25 26 27 28 28 29 29 30 30 30 30 30 30 30 30 29 28 28 27
41 41 40 40 40 40 40 39 38 37 36 34 31 29 29 28 26 24 23 22 22 23 24 24 24 25 26 27 27 27 27 28 28 28 28 28 29 29 28 27 26 25 24
40 39 39 38 38 39 38 37 35 33 32 30 28 28 27 25 23 22 22 21 22 22 22 23 24 25 25 25 26 26 25 25 26 26 26 26 27 26 25 24 23 22 21
38 37 37 37 38 37 36 34 32 30 29 28 27 26 24 23 22 22 21 21 22 22 23 23 24 24 25 25 25 25 24 24 25 25 25 25 25 24 23 22 21 20 18
36 36 36 36 36 36 34 31 30 28 27 27 25 24 23 22 21 21 21 21 22 22 22 23 23 23 23 23 23 22 22 23 23 23 22 22 22 21 20 19 18 17 15
Wind_Direction
292 291 290 289 289 289 289 289 289 289 290 290 290 290 291 291 291 292 293 293 294 294 293 293 293 293 293 292 291 291 292 292 292 292 293 294 294 294 294 295 295 296 297
296 295 293 293 292 291 291 290 290 290 291 291 291 291 291 291 292 292 292 292 293 293 293 293 293 292 291 291 291 291 292 292 292 293 294 295 295 295 295 296 297 297 297
299 297 296 295 294 293 293 293 292 292 292 291 292 292 292 292 292 292 292 292 292 292 293 293 293 292 292 291 291 291 292 292 292 293 295 295 296 296 296 297 298 298 298
300 299 298 297 296 296 295 295 294 293 293 292 292 292 291 291 292 292 292 292 293 292 293 292 292 292 292 292 291 291 291 292 293 294 295 295 296 296 297 297 299 299 299
301 300 299 299 298 298 297 296 295 294 294 293 293 292 292 291 292 292 292 292 292 292 293 292 292 292 292 292 292 292 291 292 293 294 295 296 297 296 297 298 299 300 300
301 300 299 299 298 298 297 296 295 295 294 294 293 293 293 293 293 293 292 292 292 292 292 292 292 292 292 292 292 292 292 292 293 294 295 296 297 297 297 299 300 301 301
301 300 299 298 298 297 296 296 295 295 295 294 293 293 293 293 292 292 292 292 292 292 292 292 291 291 291 291 291 292 292 293 293 294 295 297 297 297 298 300 301 302 302
301 300 299 298 298 297 296 296 295 295 295 295 295 294 294 293 292 292 292 292 292 292 292 292 292 291 290 290 290 291 292 293 293 294 295 296 297 298 299 300 302 302 303
301 299 299 298 297 296 296 296 295 295 295 296 296 295 294 293 292 293 292 292 292 292 291 291 292 290 290 290 290 291 292 292 292 294 295 296 297 298 299 300 302 303 303
300 299 298 297 297 296 296 296 295 295 295 296 296 296 294 293 293 293 293 293 293 292 291 291 291 289 288 289 290 291 291 291 291 293 295 296 297 298 299 300 302 303 304
300 299 298 297 297 297 297 297 297 296 297 297 297 297 296 295 294 294 294 294 293 292 292 291 290 289 288 289 290 291 291 290 291 292 294 295 296 297 298 300 302 303 304
300 299 298 298 297 297 298 298 298 298 298 298 298 298 296 295 295 295 295 295 294 292 292 291 290 289 289 289 289 290 290 290 290 292 293 295 296 297 298 300 302 303 304
299 299 298 298 298 299 299 299 299 299 299 300 300 299 297 296 296 296 295 295 294 292 291 291 290 289 289 289 289 289 290 290 291 292 294 295 296 297 299 300 302 303 303
300 300 299 299 299 300 300 300 300 301 301 302 301 300 299 298 298 297 296 295 294 292 291 290 289 289 289 289 289 289 290 291 291 293 295 295 296 298 300 302 303 303 304
301 302 302 302 302 302 302 302 303 303 304 305 304 303 302 301 300 299 298 296 295 293 292 291 290 289 288 289 289 289 289 290 292 294 295 295 297 299 301 302 303 304 303
303 304 304 304 304 304 304 305 305 306 306 307 306 305 304 303 302 301 299 298 296 295 293 292 291 290 289 289 289 289 289 290 292 294 295 297 299 301 302 302 302 303 302
305 306 306 306 306 306 306 306 306 307 308 308 308 307 305 304 304 302 300 298 296 294 294 292 290 289 289 289 289 290 290 291 293 295 296 299 301 302 302 302 301 301 301
307 308 308 308 308 308 308 309 309 310 310 309 309 308 307 306 306 304 302 299 296 293 293 292 290 289 289 289 290 290 290 292 294 296 298 301 302 302 302 301 301 301 301
309 310 310 310 310 310 310 311 311 312 312 312 311 309 308 308 308 306 303 300 298 295 294 292 290 290 290 290 290 291 292 294 296 298 300 303 303 303 303 302 302 301 300
312 312 312 312 312 312 313 313 313 313 313 313 312 311 310 310 309 307 305 302 300 298 296 294 292 291 292 293 293 294 295 296 299 301 303 304 304 304 304 304 304 302 301
314 314 314 314 314 315 315 315 315 315 315 315 314 313 313 313 312 309 306 304 302 300 298 297 295 295 295 296 296 296 297 299 302 304 305 305 305 306 306 306 306 305 303
315 316 316 316 316 317 316 316 317 317 317 316 315 314 315 315 314 312 308 305 303 302 301 299 298 298 299 299 299 299 300 302 304 305 306 306 307 307 308 308 308 307 306
316 316 317 318 318 319 319 319 319 319 318 319 318 317 317 317 316 314 312 310 308 306 304 303 303 303 303 302 302 303 304 305 306 307 307 308 309 309 309 309 309 309 308
316 317 318 319 320 321 321 321 321 321 321 321 320 319 318 318 318 317 316 313 311 310 310 309 308 307 306 306 306 306 307 308 310 311 311 311 312 312 311 311 311 311 309
317 317 319 320 321 321 321 322 322 322 323 322 322 321 320 320 320 320 318 316 315 315 314 313 312 310 310 310 309 309 309 310 311 312 313 314 315 314 313 313 313 312 310
318 319 320 322 322 322 322 322 323 323 323 323 323 323 322 322 323 322 320 319 320 320 319 318 317 316 316 316 314 313 313 314 315 315 315 317 318 318 318 317 316 314 311
Height
5680 5675 5670 5664 5659 5654 5649 5644 5638 5633 5627 5622 5616 5611 5607 5602 5596 5591 5586 5581 5575 5570 5564 5559 5554 5549 5544 5539 5534 5529 5525 5520 5517 5514 5507 5500 5493 5488 5482 5476 5470 5462 5455
5667 5661 5656 5650 5645 5639 5634 5629 5623 5618 5612 5606 5601 5595 5590 5585 5580 5575 5570 5564 5558 5553 5548 5542 5537 5532 5527 5522 5517 5512 5508 5503 5499 5496 5491 5483 5476 5469 5464 5457 5450 5442 5434
5654 5648 5642 5636 5630 5624 5619 5613 5608 5602 5597 5591 5585 5580 5574 5569 5563 5558 5552 5547 5542 5536 5531 5525 5520 5515 5510 5505 5500 5496 5491 5486 5482 5478 5474 5466 5459 5452 5445 5439 5431 5423 5415
5641 5634 5628 5622 5616 5610 5604 5598 5592 5586 5580 5575 5569 5563 5558 5552 5546 5541 5535 5530 5524 5519 5514 5509 5504 5498 5493 5488 5483 5479 5474 5469 5464 5460 5455 5449 5442 5434 5427 5421 5414 5406 5397
5627 5620 5614 5607 5601 5595 5588 5582 5576 5570 5564 5558 5552 5547 5541 5535 5529 5523 5518 5512 5507 5502 5497 5492 5487 5482 5476 5471 5466 5461 5456 5452 5447 5442 5437 5432 5425 5417 5409 5402 5396 5388 5381
5612 5606 5599 5592 5586 5579 5573 5566 5560 5554 5548 5541 5535 5529 5524 5518 5511 5505 5500 5495 5490 5485 5481 5475 5470 5465 5459 5454 5449 5444 5439 5434 5429 5424 5419 5414 5407 5399 5392 5384 5377 5370 5365
5597 5590 5583 5576 5570 5563 5557 5550 5544 5537 5531 5524 5518 5512 5507 5501 5494 5488 5482 5478 5474 5469 5463 5458 5453 5448 5442 5437 5432 5427 5422 5417 5412 5407 5402 5397 5390 5382 5375 5368 5360 5352 5345
5581 5574 5566 5559 5553 5546 5539 5533 5526 5520 5514 5507 5501 5495 5489 5483 5476 5470 5464 5460 5456 5452 5446 5440 5435 5430 5425 5420 5415 5410 5405 5400 5395 5390 5386 5379 5372 5364 5357 5350 5343 5337 5331
5563 5556 5549 5541 5535 5529 5522 5516 5509 5503 5497 5490 5484 5477 5472 5466 5458 5452 5446 5441 5438 5433 5428 5423 5418 5413 5408 5402 5398 5394 5389 5384 5378 5373 5368 5362 5355 5348 5341 5334 5328 5320 5315
5546 5539 5531 5523 5517 5511 5504 5498 5491 5485 5479 5473 5467 5460 5453 5448 5441 5434 5428 5423 5419 5415 5410 5405 5401 5396 5391 5385 5381 5378 5374 5369 5363 5358 5352 5346 5340 5334 5326 5319 5312 5305 5299
5528 5521 5513 5506 5499 5492 5486 5480 5473 5467 5461 5455 5449 5442 5435 5429 5423 5416 5410 5404 5400 5396 5392 5388 5383 5378 5374 5369 5365 5362 5358 5353 5348 5343 5338 5332 5326 5320 5313 5306 5298 5291 5284
5509 5502 5495 5488 5481 5475 5469 5462 5455 5449 5443 5436 5430 5424 5417 5411 5404 5398 5392 5387 5382 5378 5374 5370 5366 5361 5357 5353 5349 5346 5342 5338 5334 5329 5324 5319 5313 5307 5300 5293 5286 5279 5271
5492 5485 5478 5471 5464 5457 5451 5445 5438 5431 5425 5418 5412 5405 5400 5393 5387 5381 5375 5369 5364 5360 5357 5353 5349 5345 5341 5338 5334 5330 5327 5323 5320 5315 5311 5305 5300 5294 5288 5281 5274 5267 5260
5474 5468 5461 5454 5448 5441 5434 5428 5421 5415 5408 5401 5394 5388 5382 5376 5370 5364 5358 5353 5348 5343 5339 5336 5333 5329 5326 5323 5320 5317 5313 5310 5306 5302 5297 5292 5287 5281 5275 5268 5261 5255 5248
5458 5451 5445 5438 5432 5426 5419 5412 5405 5399 5391 5384 5377 5370 5364 5359 5353 5347 5342 5337 5332 5328 5324 5321 5318 5315 5312 5310 5307 5304 5300 5297 5293 5289 5284 5280 5274 5269 5263 5255 5249 5243 5237
5442 5436 5430 5423 5417 5411 5405 5399 5391 5384 5377 5368 5361 5354 5348 5343 5337 5332 5327 5322 5317 5314 5310 5308 5305 5302 5300 5298 5295 5292 5288 5285 5281 5277 5272 5267 5262 5257 5251 5244 5238 5232 5227
5427 5421 5415 5409 5403 5397 5390 5384 5379 5372 5363 5355 5347 5340 5334 5328 5323 5317 5312 5308 5304 5301 5298 5295 5292 5290 5288 5286 5283 5280 5277 5273 5269 5265 5261 5256 5250 5245 5239 5233 5227 5222 5217
5414 5408 5401 5396 5389 5383 5377 5370 5364 5357 5351 5344 5336 5328 5321 5316 5310 5305 5299 5295 5292 5289 5286 5284 5281 5279 5277 5275 5272 5269 5266 5262 5258 5254 5249 5244 5239 5233 5228 5222 5217 5212 5207
5401 5395 5389 5383 5377 5370 5364 5357 5351 5344 5337 5331 5324 5317 5310 5305 5299 5293 5288 5284 5281 5279 5276 5273 5271 5269 5267 5264 5262 5259 5255 5252 5248 5243 5238 5233 5227 5222 5217 5212 5207 5202 5197
5390 5383 5377 5371 5365 5359 5352 5345 5339 5332 5326 5319 5312 5306 5300 5294 5289 5284 5279 5275 5272 5269 5267 5264 5262 5260 5258 5255 5252 5249 5245 5241 5237 5232 5227 5222 5217 5212 5207 5202 5197 5192 5188
5379 5373 5367 5360 5354 5348 5341 5334 5328 5321 5314 5308 5302 5296 5290 5285 5280 5275 5271 5267 5265 5262 5260 5257 5255 5252 5249 5246 5242 5239 5235 5231 5227 5222 5217 5213 5208 5203 5198 5193 5188 5183 5179
5369 5363 5357 5350 5344 5337 5331 5324 5317 5310 5304 5298 5292 5287 5282 5276 5272 5267 5264 5261 5258 5255 5252 5250 5247 5244 5240 5237 5234 5230 5226 5222 5217 5213 5208 5204 5199 5194 5189 5184 5180 5175 5171
5359 5353 5347 5341 5334 5328 5321 5314 5307 5301 5295 5289 5284 5279 5274 5269 5265 5261 5258 5254 5251 5249 5245 5242 5239 5236 5232 5229 5225 5221 5217 5213 5209 5205 5200 5196 5191 5186 5181 5177 5172 5168 5165
5349 5344 5338 5332 5326 5319 5312 5306 5299 5293 5288 5282 5277 5273 5268 5264 5260 5256 5253 5249 5246 5243 5239 5236 5232 5229 5225 5221 5217 5213 5209 5205 5201 5197 5192 5188 5183 5178 5174 5170 5166 5162 5159
5341 5335 5329 5323 5317 5311 5304 5298 5292 5287 5282 5277 5272 5267 5263 5259 5255 5251 5248 5245 5241 5237 5233 5230 5226 5222 5218 5214 5210 5206 5202 5198 5194 5190 5185 5181 5177 5172 5168 5164 5160 5157 5154
5333 5327 5322 5316 5310 5303 5297 5292 5286 5281 5276 5272 5267 5263 5259 5255 5251 5247 5244 5240 5236 5232 5228 5224 5220 5216 5212 5207 5203 5199 5195 5191 5187 5183 5179 5175 5171 5167 5163 5159 5156 5153 5151